CW8209 Weather Reports


time (UTC)temp
F
wind
direction
speed
knots
gust
knots
rain 1hr
in
rain 24hr
in
rain mn
in
humidity
%
barometer
mb
20260506102835 36 360 4.3 8.7 0.00 0.01 0.00 84 1008.1
20260506102338 36 360 6.1 8.7 0.00 0.01 0.00 84 1008.1
20260506101839 36 360 4.3 7.8 0.00 0.01 0.00 84 1008.1
20260506101343 36 360 3.5 7.0 0.00 0.01 0.00 84 1008.1
20260506100842 36 360 2.6 9.6 0.00 0.01 0.00 83 1008.1
20260506100325 36 360 5.2 9.6 0.00 0.01 0.00 83 1008.1
20260506095825 36 360 3.5 8.7 0.00 0.01 0.00 83 1008.1
20260506095330 36 360 3.5 11.3 0.00 0.01 0.00 83 1008.2
20260506094835 36 360 5.2 11.3 0.00 0.01 0.00 83 1008.2
20260506094339 36 360 4.3 8.7 0.00 0.01 0.00 82 1008.2
20260506093839 36 360 4.3 9.6 0.00 0.01 0.00 82 1008.1
20260506093325 36 360 5.2 9.6 0.00 0.01 0.00 82 1008.1
20260506092824 36 360 3.5 9.6 0.00 0.01 0.00 81 1008.1
20260506092330 36 360 4.3 9.6 0.00 0.01 0.00 81 1008.2
20260506091831 36 360 4.3 10.4 0.00 0.01 0.00 81 1008.2
20260506091354 36 360 6.1 10.4 0.00 0.01 0.00 81 1008.2
20260506090831 36 360 4.3 10.4 0.00 0.01 0.00 82 1008.2
20260506090335 36 360 4.3 11.3 0.00 0.01 0.00 82 1008.2
20260506085854 36 360 5.2 11.3 0.00 0.01 0.00 82 1008.2
20260506085337 36 360 4.3 7.0 0.00 0.01 0.00 83 1008.1
20260506084836 37 360 3.5 7.8 0.00 0.01 0.00 83 1008.3
20260506084400 37 360 3.5 9.6 0.00 0.01 0.00 83 1008.4
20260506083859 37 360 4.3 11.3 0.00 0.01 0.00 83 1008.6
20260506083341 37 360 6.1 11.3 0.00 0.01 0.00 83 1008.7
20260506082901 37 360 3.5 8.7 0.00 0.01 0.00 84 1008.5
20260506082329 37 360 2.6 9.6 0.00 0.01 0.00 84 1008.3
20260506081830 37 360 5.2 9.6 0.00 0.01 0.00 84 1008.4
20260506081354 37 360 3.5 8.7 0.00 0.01 0.00 84 1008.4
20260506080834 37 360 5.2 8.7 0.00 0.01 0.00 84 1008.4
20260506080339 37 360 3.5 10.4 0.00 0.01 0.00 83 1008.2
20260506073326 38 360 5.2 10.4 0.00 0.01 0.00 81 1008.1
20260506072845 39 360 7.0 10.4 0.00 0.01 0.00 80 1008.1
20260506072328 39 360 6.1 9.6 0.00 0.01 0.00 79 1008.3
20260506071828 39 360 5.2 9.6 0.00 0.01 0.00 79 1008.3
20260506071337 39 360 5.2 11.3 0.00 0.01 0.00 78 1008.0
20260506070836 40 360 8.7 12.2 0.00 0.01 0.00 77 1007.8
20260506070340 40 360 7.8 12.2 0.00 0.01 0.00 77 1007.7
20260506062354 41 360 0.0 0.9 0.00 0.01 0.00 80 1007.7
20260506061832 41 360 0.0 0.9 0.00 0.01 0.00 80 1007.6
20260506061335 41 360 0.0 0.9 0.00 0.01 0.00 80 1007.7
20260506060838 41 360 0.0 0.9 0.00 0.01 0.00 81 1007.5
20260506060342 41 360 0.0 1.7 0.00 0.01 0.00 81 1007.8
20260506051329 41 360 0.0 1.7 0.00 0.04 0.00 84 1008.2
20260506050828 40 360 0.9 1.7 0.00 0.04 0.00 84 1008.1
20260506050335 40 360 0.0 0.9 0.00 0.04 0.00 85 1008.1
20260506044835 40 360 0.0 0.9 0.00 0.04 0.00 84 1008.1
20260506044358 40 360 0.0 0.9 0.00 0.04 0.00 84 1008.0
20260506043836 40 360 0.0 0.9 0.00 0.04 0.04 84 1007.9
20260506043339 40 360 0.0 0.9 0.00 0.04 0.04 84 1008.0
20260506042836 40 360 0.0 0.9 0.00 0.04 0.04 84 1008.0
20260506042340 40 360 0.0 1.7 0.00 0.04 0.04 84 1007.9
20260506041839 40 360 0.9 1.7 0.00 0.04 0.04 84 1007.9
20260506041342 40 360 0.0 1.7 0.00 0.04 0.04 84 1008.0
20260506040836 40 360 0.0 1.7 0.00 0.04 0.04 83 1008.0
20260506040341 40 360 0.9 1.7 0.00 0.04 0.04 83 1007.8
20260506035858 40 360 0.0 1.7 0.00 0.04 0.04 83 1007.9
20260506035341 40 360 0.0 2.6 0.00 0.04 0.04 82 1008.0
20260506034838 40 360 0.9 2.6 0.00 0.04 0.04 82 1007.9
20260506034328 40 360 0.9 2.6 0.00 0.04 0.04 81 1007.7
20260506033828 41 360 0.9 2.6 0.00 0.04 0.04 80 1007.9
20260506033331 41 360 0.0 0.0 0.00 0.04 0.04 79 1008.0
20260506032830 41 360 0.0 0.9 0.00 0.04 0.04 78 1008.0
20260506032333 41 360 0.0 1.7 0.00 0.04 0.04 78 1007.9
20260506031835 42 360 0.0 1.7 0.00 0.04 0.04 77 1007.9
20260506031338 42 360 0.0 0.9 0.00 0.04 0.04 77 1007.9
20260506030838 42 360 0.0 0.9 0.00 0.04 0.04 77 1007.9
20260506030341 42 360 0.0 0.9 0.00 0.04 0.04 76 1007.9
20260506025841 42 360 0.0 0.9 0.00 0.04 0.04 76 1007.8
20260506025404 42 360 0.0 0.9 0.00 0.04 0.04 75 1007.9
20260506024902 43 360 0.0 0.9 0.00 0.04 0.04 74 1007.9
20260506024324 43 360 0.0 0.9 0.00 0.04 0.04 74 1007.8
20260506023830 43 360 0.0 0.9 0.00 0.04 0.04 74 1007.8
20260506023333 43 360 0.0 0.9 0.00 0.04 0.04 73 1007.8
20260506022832 43 360 0.0 0.9 0.00 0.04 0.04 73 1007.8
20260506022336 43 360 0.0 0.9 0.00 0.04 0.04 72 1007.9
20260506021835 43 360 0.0 0.9 0.00 0.04 0.04 72 1007.8
20260506021340 43 360 0.0 0.9 0.00 0.04 0.04 72 1007.8
20260506020859 43 360 0.0 0.9 0.00 0.04 0.04 71 1007.8
20260506020341 43 360 0.0 1.7 0.00 0.04 0.04 71 1007.8
20260506015840 43 360 0.0 1.7 0.00 0.04 0.04 71 1007.8
20260506015343 43 360 0.9 2.6 0.00 0.04 0.04 71 1007.9
20260506014902 43 360 0.9 2.6 0.00 0.04 0.04 70 1007.8
20260506014325 43 360 0.9 1.7 0.00 0.04 0.04 71 1007.8
20260506013824 43 360 0.0 1.7 0.00 0.04 0.04 70 1007.7
20260506013328 43 360 0.0 1.7 0.00 0.04 0.04 69 1007.6
20260506012829 43 360 0.0 1.7 0.00 0.04 0.04 70 1007.5
20260506012333 43 360 0.0 1.7 0.00 0.04 0.04 70 1007.4
20260506011833 43 360 0.0 0.9 0.00 0.04 0.04 70 1007.3
20260506011356 43 360 0.0 0.9 0.00 0.04 0.04 70 1007.3
20260506010834 42 360 0.0 1.7 0.00 0.04 0.04 71 1007.3
20260506010336 42 360 0.0 1.7 0.00 0.04 0.04 71 1007.1
20260506005836 42 360 0.0 0.0 0.00 0.04 0.04 71 1007.1
20260506005359 42 360 0.0 0.9 0.00 0.04 0.04 71 1007.1
20260506004839 42 360 0.0 0.9 0.00 0.04 0.04 70 1006.9
20260506004324 42 360 0.0 1.7 0.00 0.04 0.04 70 1006.8
20260506003843 43 360 0.0 0.9 0.00 0.04 0.04 70 1006.9
20260506003327 43 360 0.0 1.7 0.00 0.04 0.04 69 1006.9
20260506002828 43 360 0.0 1.7 0.00 0.04 0.04 68 1006.8
20260506002332 43 140 0.0 1.7 0.00 0.04 0.04 68 1006.8
20260506001831 44 145 0.9 1.7 0.00 0.04 0.04 67 1006.9
20260506001338 44 171 0.0 1.7 0.00 0.04 0.04 66 1006.8
20260506000836 44 142 0.0 1.7 0.00 0.04 0.04 67 1006.7
20260506000340 44 190 0.9 1.7 0.00 0.04 0.04 66 1006.7
20260505235839 44 135 0.0 2.6 0.00 0.04 0.04 68 1006.6
20260505235324 44 194 0.9 2.6 0.00 0.04 0.04 66 1006.6
20260505234904 44 174 0.9 1.7 0.00 0.04 0.04 65 1006.6
20260505234347 45 117 0.9 1.7 0.00 0.04 0.04 64 1006.5
20260505233825 45 360 0.0 2.6 0.00 0.04 0.04 67 1006.5
20260505233330 46 22 0.9 3.5 0.00 0.04 0.04 65 1006.6
20260505232830 46 9 2.6 3.5 0.00 0.04 0.04 66 1006.7
20260505232333 46 18 0.9 2.6 0.00 0.04 0.04 67 1006.7
20260505231853 46 360 0.9 3.5 0.00 0.04 0.04 69 1006.7
20260505231357 46 5 1.7 3.5 0.00 0.04 0.04 69 1006.6
20260505230836 46 236 0.9 3.5 0.00 0.04 0.04 69 1006.7
20260505230340 46 9 1.7 4.3 0.00 0.04 0.04 67 1006.8
20260505225825 46 14 2.6 5.2 0.00 0.04 0.04 67 1006.9
20260505225329 46 11 2.6 7.0 0.00 0.04 0.04 67 1006.9
20260505224829 47 16 3.5 6.1 0.00 0.04 0.04 67 1006.8
20260505224333 48 11 2.6 3.5 0.00 0.04 0.04 66 1006.8
20260505223834 48 21 2.6 5.2 0.00 0.04 0.04 64 1006.9
20260505223337 48 22 1.7 5.2 0.00 0.04 0.04 65 1006.9
20260505222837 48 14 1.7 5.2 0.00 0.04 0.04 68 1006.9
20260505222341 48 16 2.6 7.0 0.00 0.04 0.04 66 1006.8
20260505221901 48 5 3.5 7.0 0.00 0.04 0.04 64 1006.8
20260505221324 48 9 3.5 7.8 0.00 0.04 0.04 65 1006.9
20260505220824 47 360 2.6 7.8 0.00 0.04 0.04 65 1007.0
20260505220329 47 9 2.6 7.0 0.00 0.04 0.04 66 1007.1
20260505215830 47 360 2.6 8.7 0.00 0.04 0.04 66 1006.9
20260505215338 47 5 4.3 8.7 0.00 0.04 0.04 65 1006.8
20260505214835 48 17 4.3 7.8 0.00 0.04 0.04 63 1006.9
20260505214338 48 9 2.6 7.8 0.00 0.04 0.04 66 1006.9
20260505213852 48 26 4.3 7.8 0.00 0.04 0.04 67 1006.9
20260505213355 48 9 3.5 8.7 0.00 0.04 0.04 67 1006.7
20260505212832 47 15 5.2 8.7 0.00 0.04 0.04 66 1006.9
20260505212331 47 9 5.2 10.4 0.00 0.04 0.04 67 1006.8
20260505211902 47 9 7.0 10.4 0.00 0.04 0.04 65 1006.8
20260505211336 48 14 7.8 9.6 0.00 0.04 0.04 64 1006.9
20260505210854 48 5 7.0 9.6 0.00 0.04 0.04 64 1006.8
20260505210337 49 15 6.1 8.7 0.00 0.04 0.04 64 1006.7
20260505205837 48 251 4.3 7.8 0.00 0.04 0.04 65 1006.6
20260505205401 49 9 2.6 7.8 0.00 0.04 0.04 66 1006.6
20260505204840 48 15 3.5 7.8 0.00 0.04 0.04 64 1006.6
20260505204345 49 232 4.3 7.8 0.00 0.04 0.04 64 1006.6
20260505203824 49 227 5.2 8.7 0.00 0.04 0.04 65 1006.5
20260505203327 49 229 5.2 8.7 0.00 0.04 0.04 64 1006.4
20260505202827 50 5 5.2 8.7 0.00 0.04 0.04 63 1006.4
20260505202331 50 360 6.1 7.8 0.00 0.04 0.04 63 1006.4
20260505201832 50 227 3.5 8.7 0.00 0.04 0.04 64 1006.5
20260505201340 50 213 7.0 9.6 0.00 0.04 0.04 61 1006.4
20260505200839 51 225 6.1 8.7 0.00 0.04 0.04 61 1006.3
20260505200400 52 205 5.2 8.7 0.00 0.04 0.04 63 1006.5
20260505195837 53 161 7.8 9.6 0.00 0.04 0.04 63 1006.4
20260505195340 53 147 5.2 7.8 0.00 0.04 0.04 64 1006.3
20260505194839 53 360 6.1 7.8 0.00 0.04 0.04 60 1006.2
20260505194342 53 200 5.2 8.7 0.00 0.04 0.04 60 1006.2
20260505193841 53 162 4.3 8.7 0.00 0.04 0.04 61 1006.2
20260505193342 53 179 2.6 10.4 0.00 0.04 0.04 57 1006.0
20260505192841 53 185 4.3 11.3 0.00 0.04 0.04 58 1006.0
20260505192404 53 179 3.5 11.3 0.00 0.04 0.04 60 1005.9
20260505191841 53 134 4.3 8.7 0.00 0.04 0.04 59 1005.9
20260505191324 53 183 5.2 8.7 0.00 0.04 0.04 58 1006.0
20260505190824 53 196 3.5 7.8 0.00 0.04 0.04 58 1006.1
20260505190328 53 192 3.5 7.8 0.00 0.04 0.04 56 1006.0
20260505185848 53 173 2.6 7.0 0.00 0.04 0.04 57 1006.0
20260505185351 53 220 2.6 5.2 0.00 0.04 0.04 61 1006.1
20260505184831 52 202 1.7 6.1 0.00 0.04 0.04 60 1006.2
20260505184338 53 132 1.7 2.6 0.00 0.04 0.04 60 1006.2
20260505183834 52 180 0.9 3.5 0.00 0.04 0.04 66 1006.0
20260505183337 52 102 2.6 4.3 0.00 0.04 0.04 61 1005.9
20260505182836 52 88 1.7 4.3 0.00 0.04 0.04 61 1006.0
20260505182338 51 162 0.9 2.6 0.00 0.04 0.04 61 1006.1
20260505181838 50 87 0.9 4.3 0.00 0.04 0.04 61 1006.0
20260505181342 50 176 1.7 7.8 0.00 0.04 0.04 63 1006.1
20260505180917 49 254 0.9 4.3 0.00 0.04 0.04 63 1006.0
20260505180343 49 219 2.6 4.3 0.00 0.04 0.04 65 1005.9
20260505175840 49 219 2.6 5.2 0.00 0.04 0.04 69 1006.0
20260505175325 49 245 2.6 5.2 0.00 0.04 0.04 66 1006.1
20260505174826 48 100 0.9 7.8 0.00 0.04 0.04 67 1006.0
20260505174330 48 9 2.6 7.0 0.00 0.04 0.04 71 1005.9
20260505173831 48 197 3.5 8.7 0.00 0.04 0.04 72 1005.9
20260505173339 47 5 3.5 8.7 0.00 0.04 0.04 70 1005.8
20260505172838 47 222 5.2 8.7 0.00 0.04 0.04 71 1005.9
20260505172403 47 182 4.3 7.8 0.00 0.04 0.04 71 1005.8
20260505171843 47 360 5.2 7.8 0.00 0.04 0.04 72 1005.9
20260505171347 47 192 4.3 8.7 0.00 0.04 0.04 73 1005.8
20260505170826 47 9 6.1 8.7 0.00 0.04 0.04 73 1005.7
20260505170330 46 15 6.1 8.7 0.00 0.04 0.04 73 1005.9
20260505165830 46 204 6.1 8.7 0.00 0.04 0.04 74 1006.0
20260505165355 45 237 4.3 7.8 0.00 0.04 0.04 76 1005.8
20260505164853 45 220 3.5 7.8 0.00 0.04 0.04 77 1005.7
20260505164336 44 237 5.2 7.8 0.00 0.04 0.04 76 1005.8
20260505163835 44 207 3.5 7.8 0.00 0.04 0.04 77 1005.9
20260505163340 44 239 4.3 7.8 0.00 0.04 0.04 77 1006.0
20260505162900 44 10 4.3 7.0 0.00 0.04 0.04 78 1005.9
20260505162341 44 12 4.3 7.0 0.00 0.04 0.04 76 1005.8
20260505161901 43 252 4.3 7.8 0.00 0.04 0.04 77 1005.7
20260505161324 43 15 4.3 7.0 0.00 0.04 0.04 78 1005.8
20260505160828 44 224 5.2 7.0 0.00 0.04 0.04 78 1005.7
20260505160331 44 232 5.2 7.0 0.00 0.04 0.04 77 1005.5
20260505153333 45 15 5.2 7.8 0.00 0.04 0.04 76 1005.5
20260505152833 45 14 4.3 7.0 0.00 0.04 0.04 75 1005.5
20260505152356 45 216 4.3 7.0 0.00 0.04 0.04 75 1005.4
20260505151835 45 218 2.6 7.0 0.00 0.04 0.04 77 1005.2
20260505151338 45 203 4.3 7.0 0.00 0.04 0.04 77 1005.5
20260505150836 46 184 4.3 7.0 0.00 0.04 0.04 78 1005.5
20260505150339 45 223 4.3 7.8 0.00 0.04 0.04 78 1005.1
20260505140333 45 360 6.1 8.7 0.00 0.04 0.04 76 1003.5
20260505124825 43 15 5.2 9.6 0.00 0.04 0.04 78 1003.2
20260505124327 43 360 5.2 9.6 0.00 0.04 0.04 78 1003.1
20260505123840 43 15 5.2 8.7 0.00 0.04 0.04 77 1003.0
20260505123337 43 24 4.3 7.8 0.00 0.04 0.04 78 1003.1
20260505122836 43 360 5.2 8.7 0.00 0.04 0.04 78 1002.9
20260505122359 43 360 5.2 8.7 0.00 0.04 0.04 78 1002.8
20260505121836 43 17 5.2 9.6 0.00 0.04 0.04 78 1002.4
20260505121343 43 24 5.2 9.6 0.00 0.04 0.04 78 1002.2
20260505120844 43 26 6.1 9.6 0.00 0.04 0.04 76 1002.3
20260505120328 43 360 6.1 10.4 0.01 0.04 0.04 77 1002.3
20260505115826 43 22 6.1 9.6 0.01 0.04 0.04 77 1002.2
20260505115331 43 360 5.2 9.6 0.01 0.04 0.04 78 1002.0
20260505114851 43 360 6.1 10.4 0.01 0.04 0.04 78 1002.0
20260505114334 43 360 6.1 10.4 0.01 0.04 0.04 77 1001.9
20260505113833 43 360 7.0 13.9 0.01 0.04 0.04 78 1001.8
20260505113357 43 360 8.7 13.9 0.01 0.04 0.04 77 1001.5
20260505112855 42 360 6.1 9.6 0.01 0.04 0.04 78 1001.5
20260505112358 42 360 5.2 9.6 0.01 0.04 0.04 79 1001.7
20260505111836 42 360 5.2 9.6 0.01 0.04 0.04 80 1001.5
20260505111340 42 360 6.1 9.6 0.01 0.04 0.04 79 1001.4
20260505110859 42 360 6.1 12.2 0.01 0.04 0.04 81 1001.0
20260505110402 42 360 6.1 12.2 0.00 0.03 0.03 81 1000.9